GPS II-6

operational
NORAD ID: 20452 Int'l Des: 1990-008 Owner: AFSSD2 Country: US Constellation: GPS
MEOCIRCULAR

关于 GPS II-6

正在加载描述...

实时位置

正在加载3D地球...

即将过境

高度历史

Altitude vs Time

uPlot chart will show altitude changes over time

两行轨道根数

1 20452U 90008A 25353.43440738 .00000042 00000-0 00000-0 0 9997
2 20452 54.8238 139.9404 0013136 278.2665 83.9574 1.89597852253027
Epoch: Dec 19, 2025 • Age: 38 hours

当前状态

高度 21194.0 km
速度 3.80 km/s
星下点 3.45°N, 45.52°E
发射日期 Jan 24, 1990
运行时间 35.9 years
类型 navigation

技术详情

分类 Payload
质量 776.00 kg
干质量 776.00 kg
总质量 1667.00 kg
长度 2.40 m
直径 1.80 m
跨度 5.30 m
形状 Box + 2 Pan
制造商 RWISB
平台类型 GPS II
阶段状态 In Orbit
所有者/国家 AFSSD2/US

大型星座

Loading constellations...